�������l�o���
Date,Time,MP-1(��Sv/h),MP-2(��Sv/h),MP-3(��Sv/h),MP-4(��Sv/h),MP-5(��Sv/h),MP-6(��Sv/h),MP-7(��Sv/h),MP-8(��Sv/h),����,����(m/s),���J
2023/04/24,00:00,0.573,0.845,0.504,1.057,0.745,0.327,0.585,0.552,�k��,7.1,��
2023/04/24,00:10,0.573,0.844,0.505,1.057,0.745,0.326,0.583,0.553,���k��,4.8,��
2023/04/24,00:20,0.571,0.845,0.504,1.060,0.748,0.326,0.584,0.551,���k��,6.3,��
2023/04/24,00:30,0.571,0.844,0.503,1.062,0.745,0.326,0.586,0.553,�k��,8.5,��
2023/04/24,00:40,0.572,0.843,0.504,1.059,0.746,0.327,0.584,0.554,���k��,9.3,��
2023/04/24,00:50,0.571,0.843,0.504,1.058,0.746,0.326,0.581,0.552,�k��,10.8,��
2023/04/24,01:00,0.573,0.844,0.503,1.059,0.747,0.327,0.584,0.553,�k��,10.6,��
2023/04/24,01:10,0.571,0.843,0.502,1.059,0.748,0.326,0.583,0.552,�k��,8.7,��
2023/04/24,01:20,0.572,0.841,0.503,1.058,0.747,0.326,0.584,0.552,�k��,6.9,��
2023/04/24,01:30,0.572,0.840,0.504,1.058,0.746,0.326,0.582,0.553,���k��,5.9,��
2023/04/24,01:40,0.572,0.843,0.504,1.058,0.746,0.325,0.583,0.553,�k��,6.5,��
2023/04/24,01:50,0.573,0.844,0.504,1.057,0.748,0.326,0.582,0.552,�k��,9.1,��
2023/04/24,02:00,0.573,0.843,0.503,1.058,0.746,0.327,0.584,0.554,�k��,10.2,��
2023/04/24,02:10,0.572,0.844,0.504,1.060,0.747,0.327,0.584,0.553,�k��,7.9,��
2023/04/24,02:20,0.571,0.842,0.504,1.057,0.744,0.325,0.584,0.552,�k��,10.2,��
2023/04/24,02:30,0.573,0.842,0.504,1.058,0.746,0.324,0.584,0.553,�k��,13.5,��
2023/04/24,02:40,0.571,0.842,0.504,1.059,0.747,0.325,0.585,0.552,�k��,12.7,��
2023/04/24,02:50,0.573,0.841,0.504,1.057,0.746,0.326,0.586,0.552,�k��,12.7,��
2023/04/24,03:00,0.573,0.842,0.504,1.056,0.747,0.326,0.584,0.552,�k��,12.0,��
2023/04/24,03:10,0.571,0.844,0.503,1.057,0.747,0.326,0.584,0.552,�k��,11.6,��
2023/04/24,03:20,0.571,0.842,0.504,1.057,0.748,0.325,0.584,0.554,�k��,13.0,��
2023/04/24,03:30,0.572,0.842,0.502,1.057,0.748,0.326,0.583,0.554,�k��,12.8,��
2023/04/24,03:40,0.572,0.841,0.504,1.057,0.747,0.326,0.584,0.552,�k��,12.7,��
2023/04/24,03:50,0.572,0.841,0.503,1.059,0.747,0.325,0.585,0.551,�k��,12.4,��
2023/04/24,04:00,0.571,0.844,0.505,1.056,0.746,0.325,0.584,0.554,�k��,10.5,��
2023/04/24,04:10,0.570,0.844,0.503,1.060,0.747,0.326,0.583,0.552,�k��,8.9,��
2023/04/24,04:20,0.572,0.843,0.504,1.058,0.746,0.326,0.584,0.551,�k��,9.0,��
2023/04/24,04:30,0.574,0.842,0.503,1.056,0.746,0.325,0.583,0.553,�k��,9.5,��
2023/04/24,04:40,0.572,0.844,0.504,1.056,0.746,0.326,0.584,0.554,�k��,10.0,��
2023/04/24,04:50,0.571,0.842,0.503,1.058,0.746,0.326,0.585,0.552,�k��,8.7,��
2023/04/24,05:00,0.570,0.841,0.503,1.058,0.747,0.326,0.583,0.553,�k��,7.4,��
2023/04/24,05:10,0.574,0.839,0.503,1.057,0.748,0.324,0.583,0.551,�k��,6.7,��
2023/04/24,05:20,0.570,0.844,0.505,1.061,0.747,0.326,0.584,0.551,�k��,5.0,��
2023/04/24,05:30,0.570,0.842,0.503,1.059,0.747,0.326,0.584,0.551,�k��,4.6,��
2023/04/24,05:40,0.573,0.842,0.503,1.059,0.745,0.326,0.585,0.551,�k��,4.4,��
2023/04/24,05:50,0.571,0.842,0.505,1.058,0.748,0.325,0.584,0.553,�k�k��,4.2,��
2023/04/24,06:00,0.571,0.842,0.505,1.057,0.746,0.324,0.584,0.551,�k��,3.8,��
2023/04/24,06:10,0.571,0.843,0.502,1.057,0.746,0.326,0.584,0.551,�k��,4.8,��
2023/04/24,06:20,0.571,0.843,0.505,1.061,0.747,0.325,0.584,0.553,�k��,4.9,��
2023/04/24,06:30,0.571,0.843,0.504,1.058,0.746,0.326,0.584,0.552,�k��,4.8,��
2023/04/24,06:40,0.570,0.843,0.504,1.059,0.747,0.325,0.586,0.551,���k��,6.1,��
2023/04/24,06:50,0.573,0.844,0.504,1.059,0.748,0.327,0.584,0.551,���k��,5.5,��
2023/04/24,07:00,0.572,0.844,0.505,1.057,0.747,0.326,0.583,0.551,�k��,5.5,��
2023/04/24,07:10,0.572,0.843,0.505,1.059,0.747,0.325,0.585,0.553,�k��,6.7,��
2023/04/24,07:20,0.571,0.841,0.503,1.059,0.747,0.323,0.583,0.552,�k��,7.4,��
2023/04/24,07:30,0.573,0.841,0.505,1.058,0.749,0.323,0.583,0.551,�k��,7.6,��
2023/04/24,07:40,0.571,0.840,0.504,1.059,0.749,0.324,0.584,0.552,�k��,6.8,��
2023/04/24,07:50,0.570,0.843,0.504,1.059,0.747,0.324,0.583,0.552,�k��,7.2,��
2023/04/24,08:00,0.573,0.840,0.505,1.058,0.748,0.323,0.585,0.551,�k��,7.6,��
2023/04/24,08:10,0.573,0.840,0.502,1.058,0.747,0.322,0.582,0.552,�k��,6.8,��
2023/04/24,08:20,0.572,0.842,0.504,1.058,0.747,0.324,0.582,0.551,�k��,6.1,��
2023/04/24,08:30,0.572,0.839,0.505,1.058,0.748,0.323,0.582,0.550,�k�k��,9.0,��
2023/04/24,08:40,0.571,0.839,0.505,1.059,0.748,0.323,0.581,0.550,�k�k��,7.6,��
2023/04/24,08:50,0.574,0.841,0.506,1.059,0.746,0.322,0.581,0.550,�k��,6.9,��
2023/04/24,09:00,0.573,0.839,0.503,1.059,0.747,0.325,0.582,0.549,�k��,5.7,��
2023/04/24,09:10,0.573,0.840,0.504,1.058,0.746,0.323,0.582,0.551,�k��,6.7,��
2023/04/24,09:20,0.573,0.839,0.503,1.059,0.746,0.323,0.582,0.550,�k��,7.8,��
2023/04/24,09:30,0.571,0.839,0.505,1.059,0.746,0.324,0.583,0.550,�k��,10.5,��
2023/04/24,09:40,0.573,0.840,0.504,1.059,0.748,0.325,0.582,0.549,�k��,6.0,��
2023/04/24,09:50,0.574,0.839,0.503,1.058,0.748,0.323,0.582,0.550,���k��,6.4,��
2023/04/24,10:00,0.573,0.837,0.504,1.060,0.748,0.324,0.583,0.550,���k��,5.6,��
2023/04/24,10:10,0.572,0.841,0.505,1.058,0.747,0.325,0.582,0.551,���k��,4.6,��
2023/04/24,10:20,0.573,0.842,0.504,1.060,0.747,0.322,0.583,0.551,���k��,6.4,��
2023/04/24,10:30,0.572,0.840,0.505,1.061,0.747,0.324,0.582,0.549,��,4.7,��
2023/04/24,10:40,0.571,0.841,0.506,1.061,0.744,0.325,0.581,0.550,��,4.4,��
2023/04/24,10:50,0.571,0.841,0.506,1.060,0.742,0.326,0.582,0.549,���k��,6.8,��
2023/04/24,11:00,0.569,0.842,0.502,1.059,0.747,0.321,0.582,0.550,��,5.9,��
2023/04/24,11:10,0.570,0.842,0.502,1.060,0.745,0.322,0.583,0.552,���k��,5.2,��
2023/04/24,11:20,0.572,0.840,0.502,1.060,0.738,0.323,0.582,0.548,���k��,5.8,��
2023/04/24,11:30,0.572,0.843,0.503,1.061,0.735,0.325,0.583,0.550,��,6.0,��
2023/04/24,11:40,0.573,0.842,0.503,1.058,0.744,0.324,0.581,0.550,��,4.3,��
2023/04/24,11:50,0.571,0.843,0.502,1.059,0.744,0.324,0.582,0.548,���쐼,5.8,��
2023/04/24,12:00,0.574,0.842,0.503,1.059,0.744,0.325,0.582,0.549,���k��,4.6,��
2023/04/24,12:10,0.573,0.842,0.501,1.061,0.746,0.325,0.584,0.549,��,3.8,��
2023/04/24,12:20,0.575,0.843,0.501,1.058,0.745,0.326,0.583,0.549,���쐼,3.3,��
2023/04/24,12:30,0.572,0.844,0.502,1.061,0.746,0.325,0.584,0.551,��,3.4,��
2023/04/24,12:40,0.574,0.842,0.503,1.063,0.748,0.325,0.584,0.548,��,4.6,��
2023/04/24,12:50,0.575,0.844,0.502,1.062,0.749,0.325,0.585,0.550,��,5.8,��
2023/04/24,13:00,0.574,0.843,0.501,1.061,0.749,0.325,0.584,0.551,���k��,1.7,��
2023/04/24,13:10,0.574,0.842,0.503,1.062,0.747,0.326,0.583,0.549,���k��,3.5,��
2023/04/24,13:20,0.575,0.842,0.502,1.062,0.747,0.326,0.583,0.549,��,3.8,��
2023/04/24,13:30,0.575,0.843,0.503,1.060,0.746,0.325,0.583,0.548,�k��,2.6,��
2023/04/24,13:40,0.572,0.844,0.503,1.059,0.747,0.325,0.583,0.551,���k��,4.5,��
2023/04/24,13:50,0.563,0.842,0.502,1.060,0.747,0.325,0.583,0.549,��,4.0,��
2023/04/24,14:00,0.569,0.829,0.502,1.062,0.747,0.324,0.584,0.548,�k��,5.9,��
2023/04/24,14:10,0.572,0.833,0.502,1.064,0.746,0.325,0.583,0.550,���k��,2.3,��
2023/04/24,14:20,0.574,0.838,0.502,1.061,0.746,0.326,0.583,0.551,��,1.4,��
2023/04/24,14:30,0.573,0.837,0.504,1.063,0.746,0.325,0.584,0.549,��,2.0,��
2023/04/24,14:40,0.574,0.842,0.501,1.060,0.747,0.325,0.584,0.548,�k��,2.2,�L
2023/04/24,14:50,0.575,0.842,0.502,1.061,0.746,0.325,0.584,0.549,�k��,3.8,��
2023/04/24,15:00,0.574,0.843,0.502,1.060,0.748,0.325,0.583,0.548,�k�k��,2.5,��
2023/04/24,15:10,0.573,0.843,0.501,1.060,0.746,0.326,0.584,0.548,�k��,2.9,��
2023/04/24,15:20,0.573,0.841,0.503,1.059,0.747,0.325,0.583,0.549,���k��,4.7,��
2023/04/24,15:30,0.573,0.844,0.502,1.061,0.746,0.324,0.583,0.549,���k��,5.0,��
2023/04/24,15:40,0.573,0.844,0.502,1.063,0.749,0.326,0.584,0.549,���쐼,2.9,��
2023/04/24,15:50,0.575,0.844,0.504,1.062,0.745,0.325,0.584,0.548,��,1.2,��
2023/04/24,16:00,0.574,0.844,0.500,1.062,0.748,0.327,0.583,0.550,�쓌,0.9,��
2023/04/24,16:10,0.573,0.845,0.503,1.063,0.748,0.327,0.585,0.548,��쓌,2.3,��
2023/04/24,16:20,0.575,0.845,0.503,1.064,0.747,0.328,0.584,0.550,��쓌,2.8,��
2023/04/24,16:30,0.575,0.844,0.502,1.062,0.747,0.327,0.584,0.549,���쓌,1.2,��
2023/04/24,16:40,0.572,0.844,0.503,1.063,0.747,0.326,0.585,0.548,���k��,1.2,��
2023/04/24,16:50,0.571,0.846,0.501,1.063,0.746,0.327,0.583,0.549,�k�k��,0.6,��
2023/04/24,17:00,0.573,0.845,0.503,1.061,0.747,0.327,0.585,0.548,�k�k��,1.7,��
2023/04/24,17:10,0.574,0.847,0.503,1.062,0.744,0.327,0.583,0.549,�k��,3.3,��
2023/04/24,17:20,0.574,0.848,0.502,1.063,0.746,0.327,0.584,0.551,�k��,4.0,��
2023/04/24,17:30,0.574,0.847,0.503,1.063,0.745,0.327,0.585,0.552,�k��,3.2,��
2023/04/24,17:40,0.576,0.846,0.503,1.062,0.749,0.327,0.584,0.550,���k��,5.5,��
2023/04/24,17:50,0.577,0.845,0.504,1.062,0.748,0.327,0.585,0.551,�k��,6.9,��
2023/04/24,18:00,0.576,0.848,0.505,1.062,0.750,0.328,0.583,0.552,�k��,7.7,��
2023/04/24,18:10,0.575,0.847,0.505,1.063,0.750,0.327,0.585,0.551,�k��,6.4,��
2023/04/24,18:20,0.576,0.847,0.505,1.064,0.747,0.326,0.585,0.551,�k��,5.1,��
2023/04/24,18:30,0.576,0.847,0.505,1.064,0.749,0.327,0.585,0.550,�k��,5.3,��
2023/04/24,18:40,0.575,0.846,0.504,1.061,0.750,0.325,0.584,0.551,�k��,4.7,��
2023/04/24,18:50,0.576,0.847,0.503,1.062,0.749,0.327,0.584,0.550,�k��,6.5,��
2023/04/24,19:00,0.574,0.847,0.504,1.062,0.748,0.325,0.584,0.551,�k��,5.5,��
2023/04/24,19:10,0.575,0.846,0.502,1.062,0.750,0.326,0.585,0.552,�k��,5.3,��
2023/04/24,19:20,0.573,0.844,0.504,1.063,0.748,0.327,0.583,0.552,�k��,4.4,��
2023/04/24,19:30,0.575,0.845,0.504,1.061,0.750,0.327,0.585,0.549,�k��,5.6,��
2023/04/24,19:40,0.574,0.845,0.503,1.060,0.749,0.326,0.584,0.549,�k��,6.0,��
2023/04/24,19:50,0.574,0.848,0.503,1.062,0.749,0.327,0.585,0.549,���k��,6.7,��
2023/04/24,20:00,0.575,0.847,0.502,1.060,0.749,0.327,0.585,0.550,�k��,8.3,��
2023/04/24,20:10,0.576,0.845,0.504,1.062,0.750,0.325,0.586,0.549,�k��,6.2,��
2023/04/24,20:20,0.574,0.848,0.504,1.062,0.748,0.326,0.584,0.551,�k��,4.6,��
2023/04/24,20:30,0.574,0.843,0.504,1.063,0.750,0.327,0.584,0.552,�k��,4.7,��
2023/04/24,20:40,0.575,0.845,0.504,1.062,0.748,0.327,0.585,0.550,�k��,5.8,��
2023/04/24,20:50,0.572,0.845,0.503,1.061,0.749,0.327,0.584,0.549,�k��,5.1,��
2023/04/24,21:00,0.575,0.845,0.504,1.063,0.747,0.326,0.585,0.550,�k��,2.6,��
2023/04/24,21:10,0.574,0.844,0.503,1.063,0.746,0.325,0.584,0.550,�k�k��,2.9,��
2023/04/24,21:20,0.574,0.847,0.503,1.061,0.748,0.327,0.586,0.551,�k�k��,3.6,��
2023/04/24,21:30,0.574,0.845,0.503,1.060,0.749,0.327,0.586,0.550,�k��,4.5,��
2023/04/24,21:40,0.573,0.846,0.503,1.061,0.747,0.326,0.586,0.550,�k�k��,4.2,��
2023/04/24,21:50,0.576,0.845,0.505,1.063,0.748,0.327,0.586,0.550,�k�k��,4.4,��
2023/04/24,22:00,0.574,0.844,0.503,1.062,0.748,0.326,0.586,0.550,�k�k��,4.8,��
2023/04/24,22:10,0.573,0.845,0.504,1.061,0.750,0.327,0.586,0.549,�k�k��,4.4,��
2023/04/24,22:20,0.574,0.845,0.504,1.060,0.750,0.326,0.586,0.551,�k�k��,2.5,��
2023/04/24,22:30,0.572,0.846,0.503,1.062,0.749,0.325,0.586,0.549,�k,3.2,��
2023/04/24,22:40,0.574,0.844,0.503,1.062,0.747,0.327,0.585,0.549,�k�k��,4.3,��
2023/04/24,22:50,0.574,0.843,0.502,1.062,0.749,0.325,0.585,0.550,�k�k��,3.6,��
2023/04/24,23:00,0.573,0.843,0.504,1.060,0.748,0.327,0.587,0.549,�k�k��,4.7,��
2023/04/24,23:10,0.573,0.845,0.502,1.060,0.749,0.327,0.585,0.549,�k�k��,4.2,��
2023/04/24,23:20,0.572,0.843,0.504,1.060,0.747,0.326,0.583,0.550,�k�k��,4.3,��
2023/04/24,23:30,0.573,0.843,0.502,1.061,0.748,0.327,0.585,0.549,�k�k��,3.6,��
2023/04/24,23:40,0.574,0.845,0.503,1.062,0.748,0.326,0.586,0.549,�k�k��,3.8,��
2023/04/24,23:50,0.573,0.843,0.502,1.060,0.747,0.327,0.586,0.550,�k�k��,3.5,��
